Weather in Nikola

Russia / Kostroma Oblast     58°49′20″N   46°41′43″E
temp.,
°C
wind,
m/s
gust,
m/s
humid.,
%
clouds,
%
prec.,
mm/h
press.,
hPa
HPBL,
m
5 august, thu
thu500:00+12nw248835 0.0 101482
03:00+11nnw24920 0.0 101568
06:00+13nnw36750 0.0 1016232
09:00+19nnw35470 0.0 10161199
12:00+21nnw343424 0.0 10161970
15:00+22nw343243 0.0 10162205
18:00+20nnw25465 0.0 1017399
21:00+13n22643 0.0 101711
6 august, fri
fri600:00+11ne11706 0.0 101810
03:00+10ene2274100 0.0 101919
06:00+13e2468100 0.0 1019122
09:00+19ese3446100 0.0 1019658
12:00+22se223513 0.0 10192003
15:00+20sse234774 0.0 1018639
18:00+20e2351100 0.0 1018119
21:00+17e2755100 0.0 1018174
7 august, sat
sat700:00+15ese2660100 0.0 1018170
03:00+15ese2759100 0.0 1019195
06:00+15ese3861100 0.0 1019296
09:00+17se3557100 0.0 1020622
12:00+16se2569100 0.0 1020519
15:00+21se345168 0.0 10191459
18:00+20se355934 0.0 1019918
21:00+14se2292100 0.0 102021
8 august, sun
sun800:00+15ese2484100 0.1 1020121
03:00+14e2780100 0.1 1021222
06:00+15ese3107289 0.0 1021364
09:00+16ese41066100 0.0 1021488
12:00+19se4757100 0.0 1021559
15:00+23se464975 0.0 1020917
18:00+21se376291 0.0 1020331
21:00+17ese31078100 0.0 1020249
9 august, mon
mon900:00+17ese31175100 0.0 1020304
03:00+17se2672100 0.0 1020210
06:00+15sse3994100 1.1 1019229
09:00+18s378571 1.3 1019308
12:00+19ssw1388100 0.0 101995
15:00+26wsw3651100 0.0 10181604
18:00+24wnw365531 0.0 1017495
21:00+19n237363 0.0 101844